#timestamp,LO_Frequency,Hit,StdDev 
1605726015.6,286047000.5,N
1605726035.4,286047001.1,N
1605726055.2,286047000.4,N
1605726075.1,286047000.5,N
1605726076.0,286047000.5,N
1605726095.8,286047000.3,N
1605726115.6,286047001.0,N
1605726135.5,286047000.6,N
1605726155.3,286047000.1,N
1605726175.2,286047000.2,N
1605726195.9,286047000.9,N
1605726215.7,286047000.2,N
1605726235.6,286047000.2,N
1605726255.4,286047001.0,N
1605726275.3,286047000.5,N
1605726295.1,286047000.3,N
1605726296.0,286047000.3,N
1605726315.8,286046999.9,N
1605726335.7,286047000.6,N
1605726355.5,286047000.4,N
1605726375.3,286047002.8,Y
1605726395.2,286047000.9,P
1605726415.0,286047002.8,P
1605726415.9,286047002.8,N
1605726435.8,286047000.3,N
1605726455.6,286047000.3,N
1605726475.4,286047000.2,N
1605726495.3,286047000.3,N
1605726515.1,286047000.3,N
1605726535.9,286047000.0,N
1605726555.7,286046999.9,N
1605726575.5,286046999.9,N
1605726595.4,286047000.1,N
1605726615.2,286047000.5,N
1605726635.0,286047000.2,N
1605726635.9,286047000.2,N
1605726655.8,286047002.4,N
1605726675.6,286047000.6,N
1605726695.5,286047000.6,N
1605726715.3,286047000.0,N
1605726735.1,286047000.5,N
1605726755.9,286047000.9,N
1605726775.7,286047000.9,N
1605726795.5,286047001.0,N
1605726815.4,286046999.9,N
1605726835.2,286047000.3,N
1605726855.1,286047000.5,N
1605726856.0,286047000.5,N
1605726875.8,286047000.8,N
1605726895.6,286047000.7,N
1605726915.5,286047000.8,N
1605726935.3,286047000.0,N
1605726955.2,286047001.0,N
1605726975.9,286047000.0,N
1605726995.7,286047000.6,N
1605727015.6,286047000.3,N
1605727035.4,286047000.2,N
1605727055.2,286047000.4,N
1605727075.1,286047000.3,N
1605727076.0,286047000.3,N
1605727095.8,286047000.5,N
1605727115.7,286047000.3,N
1605727135.5,286047000.5,N
1605727155.3,286047000.7,N
1605727175.2,286047000.9,N
1605727195.0,286047000.6,N
1605727195.9,286047000.6,N
1605727215.8,286046998.1,Y
1605727235.6,286046999.3,P
1605727255.4,286046998.7,N
1605727275.3,286046998.8,N
1605727295.1,286047001.1,N
1605727315.9,286047001.0,N
1605727335.7,286047000.8,N
1605727355.5,286047001.1,N
1605727375.4,286047000.7,N
1605727395.2,286047000.7,N
1605727415.0,286047001.2,N
1605727415.9,286047001.2,N
1605727435.8,286046998.1,N
1605727455.6,286046998.5,N
1605727475.5,286046999.1,N
1605727495.3,286046999.5,N
1605727515.1,286046996.5,Y
1605727535.9,286046996.5,P
1605727555.7,286046999.6,N
1605727575.6,286046999.6,N
1605727595.4,286046996.6,N
1605727615.2,286046996.5,N
1605727635.1,286046999.6,N
1605727636.0,286046999.6,N
1605727655.8,286046996.9,N
1605727675.6,286046999.6,N
1605727695.5,286046999.4,N
1605727715.3,286046999.4,N
1605727735.2,286046996.9,N
1605727755.9,286046996.9,N
1605727775.7,286046996.9,N
1605727795.6,286046997.7,N
1605727815.4,286046997.0,N
1605727835.3,286046997.1,N
1605727855.1,286046997.6,N
1605727856.0,286046997.6,N
1605727875.8,286046997.5,N
1605727895.7,286046997.2,N
1605727915.5,286046997.0,N
1605727935.3,286046997.5,N
1605727955.2,286046997.5,N
1605727975.0,286046997.5,N
1605727975.9,286046997.5,N
1605727995.8,286046997.2,N
1605728015.6,286046997.4,N
1605728035.4,286046997.9,N
1605728055.3,286046997.6,N
1605728075.1,286046997.8,N
1605728095.9,286046997.1,N
1605728115.7,286046997.4,N
1605728135.5,286046996.5,Y
1605728155.4,286046998.5,P
1605728175.2,286046998.4,P
1605728195.1,286046998.4,P
1605728196.0,286046998.4,Y
1605728215.8,286047000.9,P
1605728235.6,286047000.6,N
1605728255.5,286047001.0,N
1605728275.3,286047000.4,N
1605728295.1,286047000.5,N
1605728315.9,286047002.8,N
1605728335.7,286047000.5,N
1605728355.6,286047000.6,N
1605728375.4,286047002.8,N
1605728395.2,286047002.8,N
1605728415.1,286047002.0,N
1605728416.0,286047002.0,N
1605728435.8,286047002.8,N
1605728455.7,286047002.8,N
1605728475.5,286047000.0,N
1605728495.3,286047000.6,N
1605728515.2,286046999.9,N
1605728535.0,286047000.0,N
1605728535.9,286047000.0,N
1605728555.8,286047000.5,N
1605728575.6,286047000.2,N
1605728595.4,286047000.2,N
1605728615.3,286047000.6,N
1605728635.1,286047000.6,N
1605728655.8,286047000.6,N
1605728675.7,286047000.6,N
1605728695.5,286047000.3,N
1605728715.4,286047002.4,N
1605728735.2,286047000.0,N
1605728755.0,286047000.7,N
1605728755.9,286047000.7,N
1605728775.8,286047000.8,N
1605728795.6,286047001.1,N
1605728815.5,286047000.9,N
1605728835.3,286047001.0,N
1605728855.1,286047000.9,N
1605728875.9,286046998.5,N
1605728895.7,286046998.2,N
1605728915.5,286046998.3,N
1605728935.4,286046998.9,N
1605728955.2,286046998.9,N
1605728975.1,286047000.7,N
1605728976.0,286047000.7,N
1605728995.8,286046999.0,N
1605729015.6,286046999.4,N
1605729035.5,286047000.4,N
1605729055.3,286047000.8,N
1605729075.2,286047000.6,N
1605729095.9,286047001.0,N
1605729115.7,286047001.0,N
1605729135.6,286047000.9,N
1605729155.4,286047000.8,N
1605729175.2,286047000.3,N
1605729195.1,286046999.9,N
1605729196.0,286046999.9,N
1605729215.8,286046998.1,N
1605729235.7,286046998.2,N
1605729255.5,286046998.3,N
1605729275.3,286046999.4,N
1605729295.2,286046999.4,N
1605729315.0,286047000.8,N
1605729315.9,286047000.8,N
1605729335.8,286047000.7,N
1605729355.6,286047001.0,N
1605729375.4,286046998.2,N
1605729395.3,286046998.1,N
1605729415.1,286046998.7,N
1605729435.9,286046998.7,N
1605729455.7,286046999.0,N
1605729475.5,286046999.4,N
1605729495.4,286046998.7,N
1605729515.2,286046998.8,N
1605729535.0,286046999.6,N
1605729535.9,286046999.6,N
1605729555.8,286046999.3,N
1605729575.6,286046998.4,N
1605729595.5,286046998.7,N
